Sevilla, Spain

12:57 AM CET on February 08, 2016 (GMT +0100)
San Pablo

Weather History for LEZL - July, 2013

Change the Weather History Date:

Wednesday, July 10, 2013

  Actual Average Record
Temperature  
Mean Temperature 88 °F -  
Max Temperature 104 °F 93 °F 105 °F (2003)
Min Temperature 71 °F 65 °F 59 °F (2004)
Cooling Degree Days 22    
Growing Degree Days 38 (Base 50)    
Moisture  
Dew Point 50 °F    
Average Humidity 29    
Maximum Humidity 57    
Minimum Humidity 10    
Precipitation  
Precipitation 0.00 in - - ()
Sea Level Pressure  
Sea Level Pressure 29.87 in    
Wind  
Wind Speed 6 mph ()    
Max Wind Speed 18 mph    
Max Gust Speed 17 mph    
Visibility 16.0 miles    
Events      
Averages and records for this station are not official NWS values.
T = Trace of Precipitation, MM = Missing Value Source: Averaged Metar Reports

Daily Weather History Graph

Daily Weather History Graph

Search for Another Location

Airport or City:

Trip Planner

Search our weather history database for the weather conditions in past years. The results will help you decide how hot, cold, wet, or windy it might be!

Date:

Astronomy

Jul. 10, 2013 Rise Set
Actual Time 7:11 AM CEST 9:46 PM CEST
Civil Twilight 6:40 AM CEST 10:16 PM CEST
Nautical Twilight 6:02 AM CEST 10:54 PM CEST
Astronomical Twilight 5:20 AM CEST 11:36 PM CEST
Moon 9:15 AM CEST (7/10) 10:53 PM CEST (7/10)
Length of Visible Light 15h 36m
Length of Day
14h 34m
Waxing Crescent, 4% of the Moon is Illuminated
Jul 10
Waxing Crescent
Jul 16
First Quarter
Jul 22
Full
Jul 29
Last Quarter
Aug 6
New

Hourly Weather History & Observations

Time (CEST) Temp. Heat Index Dew Point Humidity Pressure Visibility Wind Dir Wind Speed Gust Speed Precip Events Conditions
12:00 AM 87.8 °F - 50.0 °F 27% 29.92 in - West 9.2 mph - N/A   Clear
12:30 AM 84.2 °F - 50.0 °F 30% 29.95 in - West 6.9 mph - N/A   Clear
1:00 AM 86.0 °F - 50.0 °F 29% 29.95 in - WSW 8.1 mph - N/A   Clear
4:30 AM 77.0 °F - 53.6 °F 44% 29.92 in - South 2.3 mph - N/A   Clear
5:00 AM 75.2 °F - 53.6 °F 47% 29.92 in - SSE 3.5 mph - N/A   Clear
5:30 AM 77.0 °F - 53.6 °F 44% 29.92 in - SSW 4.6 mph - N/A   Clear
6:00 AM 73.4 °F - 53.6 °F 50% 29.92 in - SSE 4.6 mph - N/A   Clear
6:30 AM 75.2 °F - 53.6 °F 47% 29.92 in - Variable 1.2 mph - N/A   Clear
7:00 AM 73.4 °F - 55.4 °F 53% 29.92 in - Variable 2.3 mph - N/A   Clear
7:30 AM 73.4 °F - 55.4 °F 53% 29.95 in - East 2.3 mph - N/A   Clear
8:00 AM 71.6 °F - 55.4 °F 57% 29.95 in - SE 2.3 mph - N/A   Clear
8:30 AM 75.2 °F - 57.2 °F 53% 29.95 in - Variable 1.2 mph - N/A   Clear
9:00 AM 78.8 °F - 55.4 °F 44% 29.95 in - Calm Calm - N/A   Clear
9:30 AM 82.4 °F 81.4 °F 53.6 °F 37% 29.95 in - Calm Calm - N/A   Clear
10:00 AM 80.6 °F 80.5 °F 55.4 °F 42% 29.95 in - NNW 4.6 mph - N/A   Clear
10:30 AM 82.4 °F 81.4 °F 53.6 °F 37% 29.92 in - WNW 3.5 mph - N/A   Clear
11:00 AM 84.2 °F 82.8 °F 53.6 °F 35% 29.92 in - NW 3.5 mph - N/A   Clear
11:30 AM 86.0 °F 84.2 °F 53.6 °F 33% 29.92 in - NW 2.3 mph - N/A   Clear
12:00 PM 87.8 °F 85.7 °F 53.6 °F 31% 29.92 in - Variable 2.3 mph - N/A   Clear
12:30 PM 91.4 °F - 51.8 °F 26% 29.92 in - WSW 2.3 mph - N/A   Clear
1:00 PM 93.2 °F - 50.0 °F 23% 29.89 in - WSW 3.5 mph - N/A   Clear
1:30 PM 95.0 °F - 46.4 °F 19% 29.89 in - SSW 6.9 mph - N/A   Clear
2:00 PM 96.8 °F - 44.6 °F 17% 29.89 in - SW 8.1 mph - N/A   Clear
2:30 PM 96.8 °F - 48.2 °F 19% 29.89 in - SW 9.2 mph - N/A   Clear
3:00 PM 98.6 °F - 42.8 °F 15% 29.86 in - West 8.1 mph - N/A   Clear
3:30 PM 98.6 °F - 48.2 °F 18% 29.86 in - SW 5.8 mph 17.3 mph N/A   Clear
4:00 PM 100.4 °F - 50.0 °F 18% 29.83 in - SW 6.9 mph - N/A   Clear
4:30 PM 98.6 °F - 50.0 °F 19% 29.83 in - SSW 6.9 mph - N/A   Clear
5:00 PM 100.4 °F - 44.6 °F 15% 29.83 in - SSW 8.1 mph - N/A   Clear
5:30 PM 102.2 °F - 44.6 °F 14% 29.80 in - SSW 6.9 mph - N/A   Clear
6:00 PM 100.4 °F - 46.4 °F 16% 29.80 in - SW 10.4 mph - N/A   Clear
6:30 PM 100.4 °F - 50.0 °F 18% 29.77 in - SW 12.7 mph - N/A   Clear
7:00 PM 100.4 °F - 50.0 °F 18% 29.77 in - SW 13.8 mph - N/A   Clear
7:30 PM 100.4 °F - 46.4 °F 16% 29.77 in - SSW 15.0 mph - N/A   Clear
8:00 PM 100 °F - 48 °F 10% 29.77 in 16 mi SW 18.4 mph - -  
8:00 PM 98.6 °F - 48.2 °F 18% 29.77 in - SW 17.3 mph - N/A   Clear
8:30 PM 96.8 °F - 46.4 °F 18% 29.77 in - SW 16.1 mph - N/A   Clear
9:00 PM 95.0 °F - 46.4 °F 19% 29.77 in - SW 12.7 mph - N/A   Clear
9:30 PM 93.2 °F - 46.4 °F 20% 29.77 in - SSW 11.5 mph - N/A   Clear
10:00 PM 86 °F - 51 °F 20% 29.81 in 16 mi SSW 10.4 mph - -  
10:00 PM 89.6 °F - 48.2 °F 24% 29.77 in - SW 10.4 mph - N/A   Clear
10:30 PM 87.8 °F - 48.2 °F 25% 29.80 in - SW 10.4 mph - N/A   Clear
11:00 PM 86 °F - 51 °F 20% 29.81 in 16 mi SSW 10.4 mph - -  
11:00 PM 86.0 °F - 50.0 °F 29% 29.80 in - SSW 10.4 mph - N/A   Clear
11:30 PM 84.2 °F - 51.8 °F 33% 29.80 in - SSW 9.2 mph - N/A   Clear